TimeCDT,TemperatureF,Dew PointF,Humidity,Sea Level PressureIn,VisibilityMPH,Wind Direction,Wind SpeedMPH,Gust SpeedMPH,PrecipitationIn,Events,Conditions,WindDirDegrees,DateUTC
12:15 AM,75.2,75.2,100,29.96,10.0,South,6.9,-,0.00,,Clear,180,2013-07-21 05:15:00
12:35 AM,75.2,75.2,100,29.95,9.0,South,8.1,-,0.00,,Partly Cloudy,180,2013-07-21 05:35:00
12:55 AM,75.2,75.2,100,29.95,10.0,South,5.8,-,0.00,,Clear,180,2013-07-21 05:55:00
1:15 AM,75.2,75.2,100,29.95,10.0,South,5.8,-,0.00,,Clear,190,2013-07-21 06:15:00
1:35 AM,75.2,75.2,100,29.95,8.0,SSW,4.6,-,0.00,,Scattered Clouds,200,2013-07-21 06:35:00
1:55 AM,77.0,77.0,100,29.95,10.0,West,5.8,-,0.00,,Mostly Cloudy,260,2013-07-21 06:55:00
2:15 AM,75.2,75.2,100,29.95,10.0,West,6.9,-,0.00,,Partly Cloudy,270,2013-07-21 07:15:00
2:35 AM,75.2,75.2,100,29.95,9.0,Calm,Calm,-,0.00,,Clear,0,2013-07-21 07:35:00
2:55 AM,75.2,75.2,100,29.94,10.0,SW,4.6,-,0.00,,Clear,220,2013-07-21 07:55:00
3:15 AM,73.4,73.4,100,29.93,9.0,South,5.8,-,0.00,,Clear,180,2013-07-21 08:15:00
3:35 AM,73.4,73.4,100,29.93,9.0,Calm,Calm,-,0.00,,Clear,0,2013-07-21 08:35:00
3:55 AM,73.4,73.4,100,29.93,10.0,Calm,Calm,-,0.00,,Clear,0,2013-07-21 08:55:00
4:15 AM,73.4,73.4,100,29.94,10.0,Calm,Calm,-,0.00,,Clear,0,2013-07-21 09:15:00
4:35 AM,73.4,73.4,100,29.94,10.0,Calm,Calm,-,0.00,,Clear,0,2013-07-21 09:35:00
4:55 AM,73.4,73.4,100,29.94,10.0,Calm,Calm,-,0.00,,Partly Cloudy,0,2013-07-21 09:55:00
5:15 AM,73.4,73.4,100,29.94,10.0,Calm,Calm,-,0.00,,Mostly Cloudy,0,2013-07-21 10:15:00
5:35 AM,73.4,73.4,100,29.95,10.0,South,4.6,-,0.00,,Scattered Clouds,180,2013-07-21 10:35:00
5:55 AM,71.6,71.6,100,29.95,8.0,Calm,Calm,-,0.00,,Clear,0,2013-07-21 10:55:00
6:15 AM,71.6,71.6,100,29.95,10.0,South,3.5,-,0.00,,Clear,170,2013-07-21 11:15:00
6:35 AM,71.6,71.6,100,29.96,6.0,South,4.6,-,0.00,,Clear,180,2013-07-21 11:35:00
6:50 AM,73.4,73.4,100,29.97,10.0,South,6.9,-,N/A,,Scattered Clouds,180,2013-07-21 11:50:00
6:55 AM,71.6,71.6,100,29.96,8.0,South,4.6,-,0.00,,Scattered Clouds,170,2013-07-21 11:55:00
7:15 AM,73.4,73.4,100,29.97,10.0,South,5.8,-,0.00,,Mostly Cloudy,180,2013-07-21 12:15:00
7:50 AM,77.0,77.0,100,29.98,10.0,SSW,6.9,-,N/A,,Scattered Clouds,200,2013-07-21 12:50:00
8:50 AM,80.6,77.0,89,29.98,10.0,SW,9.2,-,N/A,,Scattered Clouds,220,2013-07-21 13:50:00
9:50 AM,84.2,77.0,79,29.97,10.0,SSW,6.9,-,N/A,,Partly Cloudy,200,2013-07-21 14:50:00
10:50 AM,87.8,77.0,70,29.99,10.0,WSW,9.2,-,N/A,,Mostly Cloudy,240,2013-07-21 15:50:00
11:50 AM,89.6,73.4,59,29.99,10.0,WSW,9.2,-,N/A,,Mostly Cloudy,240,2013-07-21 16:50:00
12:50 PM,89.6,73.4,59,29.96,10.0,WSW,9.2,18.4,N/A,,Scattered Clouds,240,2013-07-21 17:50:00
1:50 PM,89.6,73.4,59,29.94,10.0,SW,10.4,-,N/A,,Scattered Clouds,220,2013-07-21 18:50:00
2:50 PM,89.6,71.6,55,29.92,10.0,SW,11.5,20.7,N/A,,Scattered Clouds,230,2013-07-21 19:50:00
3:55 PM,91.4,69.8,49,29.91,10.0,WSW,11.5,-,N/A,,Mostly Cloudy,240,2013-07-21 20:55:00
4:55 PM,91.4,69.8,49,29.91,10.0,SW,16.1,-,N/A,,Mostly Cloudy,230,2013-07-21 21:55:00
5:55 PM,87.8,69.8,55,29.91,10.0,SW,12.7,20.7,N/A,,Mostly Cloudy,230,2013-07-21 22:55:00
6:55 PM,84.2,73.4,70,29.90,10.0,SW,9.2,-,N/A,,Mostly Cloudy,220,2013-07-21 23:55:00
7:50 PM,87.8,68.0,52,29.91,10.0,SW,9.2,-,N/A,,Mostly Cloudy,220,2013-07-22 00:50:00
9:35 PM,80.6,75.2,84,29.92,10.0,South,4.6,-,0.00,,Clear,170,2013-07-22 02:35:00
9:55 PM,80.6,75.2,84,29.93,10.0,South,5.8,-,0.00,,Scattered Clouds,170,2013-07-22 02:55:00
10:15 PM,78.8,75.2,89,29.93,10.0,South,4.6,-,0.00,,Scattered Clouds,170,2013-07-22 03:15:00
10:35 PM,78.8,75.2,89,29.93,10.0,South,5.8,-,0.00,,Clear,180,2013-07-22 03:35:00
10:55 PM,78.8,75.2,89,29.93,10.0,South,6.9,-,0.00,,Scattered Clouds,190,2013-07-22 03:55:00
11:15 PM,77.0,77.0,100,29.93,10.0,South,5.8,-,0.00,,Scattered Clouds,190,2013-07-22 04:15:00
11:35 PM,77.0,77.0,100,29.93,10.0,SSW,4.6,-,0.00,,Clear,210,2013-07-22 04:35:00
11:55 PM,77.0,77.0,100,29.93,9.0,South,5.8,-,0.00,,Clear,190,2013-07-22 04:55:00